User: anonymous   Login
Location: Mt. Graham
(32.7020°N, 109.8880°W)
Time: 07:02:02
(UTC-07:00)
Language:

Hubble Space Telescope - Orbit

View from above orbital plane
View from above orbital plane
View from above satellite
View from above satellite

Ground track
Ground track

The orbit data is extracted from the following two-line orbital elements,

1 20580U 90037B   24115.97632986  .00011004  00000-0  53289-3 0  9993
2 20580  28.4693 341.4370 0002577 173.3927 186.6699 15.16946101669206
Epoch (UTC): 24 April 2024 23:25:54
Eccentricity: 0.0002577
inclination: 28.4693°
perigee height: 513 km
apogee height: 517 km
right ascension of ascending node: 341.4370°
argument of perigee: 173.3927°
revolutions per day: 15.16946101
mean anomaly at epoch: 186.6699°
orbit number at epoch: 66920

The dashed part of the orbit path shows where the satellite is in the earth's shadow,  

DLR